Weather in Nurabad

Uzbekistan     39°36′29″N   66°16′59″E
temp.,
°C
wind,
m/s
gust,
m/s
humid.,
%
clouds,
%
prec.,
mm/h
press.,
hPa
HPBL,
m
12 april, mon
mon1223:00+13ne710450 0.0 1016158
02:00+10nne57470 0.0 1017101
05:00+9nne46500 0.0 101880
08:00+12ne56450 0.0 1018170
11:00+19n32290 0.0 1018609
14:00+21nw33215 0.0 10171088
17:00+22wnw2218100 0.0 10161192
20:00+16ene2231100 0.0 101711
13 april, tue
tue1323:00+15ne2338100 0.0 101837
02:00+14sse6105393 0.0 1018202
05:00+14ne336037 0.0 101736
08:00+15nne234819 0.0 1019154
11:00+20sw23355 0.0 10201251
14:00+22wsw44245 0.0 10181982
17:00+22w44210 0.0 10182049
20:00+16wnw22350 0.0 101811
14 april, wed
wed1423:00+14ne33380 0.0 101814
02:00+13ne22460 0.0 101711
05:00+12ne22481 0.0 101711
08:00+16nne22382 0.0 1017115
11:00+21w12252 0.0 1016940
14:00+24wsw57220 0.0 10141562
17:00+23w45210 0.0 10121552
20:00+17n2226100 0.0 101211
15 april, thu
thu1523:00+16ne442898 0.0 101224
02:00+15ne4428100 0.0 101136
05:00+14ne453066 0.0 101162
08:00+16nne5738100 0.0 1012179
11:00+20n4431100 0.0 1011374
14:00+23nw3318100 0.0 10111357
17:00+21nw7625100 0.0 10121114
20:00+16wsw1240100 0.0 101413
16 april, fri
fri1623:00+14ssw3353100 0.0 101525
02:00+13s225960 0.0 101412
05:00+12sse33570 0.0 101521
08:00+16sse23470 0.0 1016155
11:00+20sw22290 0.0 10151212
14:00+23wsw22223 0.0 10141593
17:00+23wsw11212 0.0 10131500
20:00+18ene1134100 0.0 101311